Regional Weather Roundup
Issued by NWS

Home | Current Version | Previous Version | Text Only | Print | Product List | Glossary Off
Versions: 1 2 3 4 5 6 7 8 9 10 11 12 13 14 15 16 17 18 19 20 21 22 23 24 25 26 27 28 29 30 31 32 33 34 35 36 37 38 39 40 41 42 43 44 45 46 47 48 49 50

000
ASUS45 KPSR 040210
RWRAZ

ARIZONA HOURLY REGIONAL WEATHER ROUNDUP
NATIONAL WEATHER SERVICE PHOENIX AZ
700 PM MST FRI JUL 03 2015

NOTE: FAIR INDICATES FEW OR NO CLOUDS BELOW 12,000 FEET WITH NO
SIGNIFICANT WEATHER AND/OR OBSTRUCTIONS TO VISIBILITY.

AZZ001>003-036-040300-
NORTHWEST ARIZONA

CITY           SKY/WX    TMP DP  RH WIND       PRES   REMARKS
BULLHEAD CITY  MOCLDY   106  48  14 S17       29.65S HX 102
KINGMAN        MOCLDY    93  46  19 SW17      29.90R
$$

AZZ004>008-015-016-018-040300-
NORTH CENTRAL ARIZONA

CITY           SKY/WX    TMP DP  RH WIND       PRES   REMARKS
GRAND CANYON   CLOUDY    73  51  46 N8        30.16F
WILLIAMS       CLOUDY    70  55  60 W3        30.26R
PRESCOTT       MOCLDY    80  55  42 NW16G29   30.05R
FLAGSTAFF      CLOUDY    69  54  58 SW8G20    30.20R
PAYSON         CLOUDY    75  57  53 N10       30.10R
PAGE           PTCLDY    92  46  20 W5        29.91S
$$

AZZ009>014-017-040300-
NORTHEAST ARIZONA

CITY           SKY/WX    TMP DP  RH WIND       PRES   REMARKS
WINSLOW        CLOUDY    87  48  25 SE16G23   30.01R
SAINT JOHNS    LGT RAIN  67  58  72 E3        30.15R
WINDOW ROCK    CLOUDY    75  52  44 CALM      30.17
SHOW LOW       CLOUDY    66  55  68 SE7       30.16R
$$

AZZ023-040300-
GREATER PHOENIX AREA

CITY           SKY/WX    TMP DP  RH WIND       PRES   REMARKS
PHOENIX        PTCLDY    99  57  24 SW6       29.71S
BUCKEYE        PTCLDY    95  63  34 SE3       29.72S
GLENDALE       PTCLDY    99  57  25 S8        29.72S
LUKE AFB       PTCLDY    97  59  28 S10       29.70S
DEER VALLEY    PTCLDY    95  58  28 SW6       29.73S
SCOTTSDALE     CLEAR     96  57  27 W3        29.76R
MESA-FALCON    PTCLDY    97  55  24 SW6       29.74S
CHANDLER       PTCLDY    99  55  23 S6        29.73S
$$

AZZ027-028-040300-
SOUTHWEST MARICOPA COUNTY AND PINAL COUNTY

CITY           SKY/WX    TMP DP  RH WIND       PRES   REMARKS
CASA GRANDE    CLEAR     99  54  22 CALM      29.75R
GILA BEND      FAIR     103  55  20 NW9       29.68S HX 101
$$

AZZ503-504-507>509-040300-
SOUTHEAST ARIZONA

CITY           SKY/WX    TMP DP  RH WIND       PRES   REMARKS
TUCSON         CLEAR     99  51  19 N10       29.84R
DAVIS-MONTHAN  CLEAR     97  54  23 NW12      29.83R
RYAN FIELD     CLEAR     99  54  22 NW10      29.82R
NOGALES        PTCLDY    91  54  28 W8        29.93R
SIERRA VISTA   MOCLDY    88  51  28 NE6       30.01R
DOUGLAS        CLOUDY    84  57  39 E13       29.96R
SAFFORD        PTCLDY    94  60  32 NE6       29.86R
$$

AZZ020-021-025-026-031-040300-
SOUTHWEST ARIZONA

CITY           SKY/WX    TMP DP  RH WIND       PRES   REMARKS
YUMA           CLEAR    105  53  17 SW8       29.65R HX 103
$$

CAZ031-033-041-043-047-048-061-040300-
SOUTHERN CALIFORNIA

CITY           SKY/WX    TMP DP  RH WIND       PRES   REMARKS
DOWNTOWN L.A.  SUNNY     70  58  65 W8        29.83F
L.A. AIRPORT   PTSUNNY   65  60  84 W20       29.85F
SAN DIEGO      PTSUNNY   69  61  75 NW8       29.88R
BURBANK        SUNNY     78  59  51 SE8       29.83S
ONTARIO        PTSUNNY   85  55  35 W12       29.82F
RIVERSIDE      PTSUNNY   85  60  42 W12       29.82F
PALM SPRINGS   PTSUNNY  103  52  18 NW20G25   29.67F HX 100
EL CENTRO NAS  MOCLDY   106  45  12 SE6       29.63F HX 101
IMPERIAL       MOCLDY   107  42  11 SE6       29.61F HX 102
BLYTHE         CLOUDY   101  58  24 SE6       29.65S HX 100
NEEDLES        CLOUDY   105  47  14 SW15      29.68R HX 101
$$

NVZ020-UTZ003-040300-
SOUTHERN NEVADA-UTAH

CITY           SKY/WX    TMP DP  RH WIND       PRES   REMARKS
LAS VEGAS      MOSUNNY  107  38   9 W15       29.69S HX 101
SALT LAKE CITY MOCLDY    97  41  14 N8        29.89S
$$

NMZ009-TXZ055-040300-
NEW MEXICO-WEST TEXAS

CITY           SKY/WX    TMP DP  RH WIND       PRES   REMARKS
ALBUQUERQUE    MOCLDY    79  57  46 SE12      30.08S
EL PASO        PTCLDY    89  56  32 E14       29.95R
$$


........................KEY........................
SKY/WX - SKY CONDITION/WEATHER
TMP    - TEMPERATURE IN FAHRENHEIT
DP     - DEW POINT IN FAHRENHEIT
RH     - RELATIVE HUMIDITY IN PERCENT
WIND   - DIRECTION AND SPEED IN MILES PER HOUR (MPH)
VRB    - VARIABLE WIND DIRECTION
PRES   - MEAN SEA LEVEL PRESSURE IN INCHES OF MERCURY
         F - FALLING PRESSURE   R - RISING PRESSURE
         S - STEADY PRESSURE
VSB    - VISIBILITY IN MILES
HX     - HEAT INDEX IN FAHRENHEIT
WCI    - WIND CHILL INDEX IN FAHRENHEIT
TC     - TEMPERATURE IN CELSIUS WHICH IS ALSO KNOWN AS
         TEMPERATURE IN CENTIGRADE
AFB    - AIR FORCE BASE
         LUKE AFB IS LUKE AIR FORCE BASE
         DAVIS-MONTHAN IS DAVIS-MONTHAN AIR FORCE BASE
NAS    - NAVAL AIR STATION
         EL CENTRO NAS IS EL CENTRO NAVAL AIR STATION
N/A    - NOT AVAILABLE




USA.gov is the U.S. government's official web portal to all federal, state and local government web resources and services.